YAOGAN 6

Last updated on Wed Apr 24 2024 00:02:24 GMT+0000 (Coordinated Universal Time)

1 34839U 09021A 24114.45195775 .00031779 00000+0 65634-3 0 9997 2 34839 97.1676 82.4749 0018956 27.8328 332.3932 15.45588635834974
UTC large
Height (km)
Speed (km/s)
/
Latitude / Longitude
Inclination (degrees)
Orbital Period (minutes)
Azimuth
Elevation
Range (km)
Doppler Factor

Next 0 passes for location: London (51.5072 / 0.1276)

Sorry there are no passes over London.
YAOGAN 6